Flag for Colombia Weather past 2 weeks in Bogota, Colombia

Now
64 °F

Scattered clouds.


Feels Like: 64 °F
Forecast: 48 / 59 °F
Wind: 6 mph from Southeast

Location: Bogota / Eldorado

Current Time: Apr 18, 2015 at 10:37:57 AM

Latest Report: Apr 18, 2015 at 10:00 AM


Visibility: N/A

Pressure: 30.37 "Hg

Humidity: 64%

Dew point: 52 °F

Location of BogotaLocation

Historic Weather in Bogota — Graph

°F

Bogota temperature yesterday

Maximum temperature yesterday: 61 °F (at 11:00 AM)
Minimum temperature yesterday: 54 °F (at 1:00 AM)
Average temperature yesterday: 56 °F

Past Weeks' High & Low Weather Summary

 TemperatureHumidityPressure
High70 °F (Apr 10, 11:00 AM)100% (Apr 5, 2:00 AM)30.44 "Hg (Apr 5, 2:00 AM)
Low50 °F (Apr 9, 10:00 PM)40% (Apr 7, 3:00 PM)30.17 "Hg (Apr 4, 4:00 PM)
Average58 °F76%30.31 "Hg
* Reported Apr 3 9:00 AM — Apr 18 9:00 AM, Bogota, Weather by CustomWeather, © 2015

Note: Actual official high and low records may vary slightly from our data, if they occured in-between our weather recording intervals... More about our weather records

Advertising

Bogota weather history for previous 24 hours

 ConditionsComfort  
Time TempWeatherWind HumidityBarometerVisibility
9:00 AM
Sat, Apr 18
61 °FScattered clouds.8 mph72%30.38 "HgN/A
8:00 AM57 °FScattered clouds.10 mph82%30.37 "HgN/A
7:00 AM54 °FBroken clouds.5 mph94%30.36 "HgN/A
6:00 AM54 °FFog.2 mph94%30.34 "Hg3 mi
5:00 AM52 °FFog.3 mph100%30.32 "Hg3 mi
4:00 AM52 °FLight rain. Partly cloudy.2 mph100%30.32 "Hg4 mi
3:00 AM52 °FLight rain. Partly cloudy.2 mph100%30.33 "Hg5 mi
2:00 AM52 °FRain. Passing clouds.2 mph94%30.34 "Hg5 mi
1:00 AM52 °FRain. Passing clouds.5 mph94%30.36 "Hg5 mi
12:00 AM54 °FRain. Partly cloudy.2 mph94%30.38 "Hg4 mi
11:00 PM
Fri, Apr 17
54 °FRain. Partly cloudy.3 mph94%30.38 "Hg4 mi
10:00 PM57 °FSleet. Partly cloudy.3 mph72%30.38 "HgN/A
9:00 PM55 °FPassing clouds.3 mph94%30.35 "HgN/A
8:00 PM55 °FPassing clouds.2 mph94%30.32 "HgN/A
7:00 PM55 °FPassing clouds.3 mph94%30.29 "HgN/A
6:00 PM57 °FScattered showers. Scattered clouds.8 mph94%30.27 "HgN/A
5:00 PM61 °FScattered showers. Broken clouds.9 mph83%30.26 "HgN/A
4:00 PM61 °FScattered showers. Broken clouds.12 mph77%30.27 "HgN/A
3:00 PM57 °FDrizzle. Broken clouds.14 mph94%30.29 "Hg5 mi
2:00 PM55 °FSleet. Partly sunny.12 mph100%30.32 "Hg5 mi
1:00 PM57 °FThunderstorms. Partly sunny.12 mph88%30.33 "HgN/A
12:00 PM59 °FThunderstorms. Partly sunny.12 mph82%30.37 "HgN/A
11:00 AM61 °FBroken clouds.8 mph72%30.38 "HgN/A
10:00 AM57 °FBroken clouds.6 mph88%30.40 "Hg4 mi
Weather by CustomWeather, © 2015

See weather overviewHow to use our weather pages